EN

Hourly Weather Dziardonice

Today, 31 October, Saturday

Time Temperature Precipitation Wind Pressure Humidity
00:00 +9°C° 0 mm 1 mps 753 mmHg 92%
01:00 +8°C° 0 mm 1 mps 753 mmHg 93%
02:00 +8°C° 0 mm 1 mps 754 mmHg 93%
03:00 +7°C° 0 mm 1 mps 754 mmHg 93%
04:00 +7°C° 0 mm 1 mps 755 mmHg 93%
05:00 +7°C° 0 mm 1 mps 755 mmHg 93%
06:00 +6°C° 0 mm 1 mps 755 mmHg 93%
07:00 +6°C° 0 mm 1 mps 756 mmHg 93%
08:00 +7°C° 0 mm 1 mps 756 mmHg 86%
09:00 +8°C° 0 mm 0 mps 757 mmHg 80%
10:00 +9°C° 0 mm 0 mps 757 mmHg 73%
11:00 +10°C° 0 mm 0 mps 757 mmHg 70%
12:00 +11°C° 0 mm 0 mps 757 mmHg 66%
13:00 +11°C° 0 mm 0 mps 757 mmHg 62%
14:00 +10°C° 0 mm 0 mps 757 mmHg 66%
15:00 +10°C° 0 mm 0 mps 757 mmHg 69%
16:00 +9°C° 0 mm 0 mps 757 mmHg 73%
17:00 +9°C° 0 mm 1 mps 757 mmHg 75%
18:00 +9°C° 0 mm 1 mps 757 mmHg 78%
19:00 +8°C° 0 mm 1 mps 757 mmHg 81%
20:00 +7°C° 0 mm 2 mps 757 mmHg 82%
21:00 +7°C° 0 mm 2 mps 757 mmHg 83%
22:00 +6°C° 0 mm 2 mps 757 mmHg 84%
23:00 +6°C° 0 mm 2 mps 757 mmHg 85%

Tomorrow, 1 November, Sunday

Time Temperature Precipitation Wind Pressure Humidity
00:00 +6°C° 0 mm 2 mps 757 mmHg 85%
01:00 +5°C° 0 mm 3 mps 757 mmHg 86%
02:00 +4°C° 0 mm 3 mps 756 mmHg 87%
03:00 +4°C° 0 mm 3 mps 756 mmHg 87%
04:00 +4°C° 0 mm 3 mps 755 mmHg 87%
05:00 +4°C° 0 mm 3 mps 755 mmHg 87%
06:00 +4°C° 0 mm 3 mps 755 mmHg 87%
07:00 +4°C° 0 mm 3 mps 755 mmHg 86%
08:00 +5°C° 0 mm 4 mps 754 mmHg 80%
09:00 +7°C° 0 mm 4 mps 754 mmHg 73%
10:00 +8°C° 0 mm 5 mps 754 mmHg 67%
11:00 +10°C° 0 mm 4 mps 753 mmHg 67%
12:00 +11°C° 0 mm 4 mps 753 mmHg 68%
13:00 +12°C° 0 mm 4 mps 752 mmHg 68%
14:00 +11°C° 0 mm 4 mps 752 mmHg 73%
15:00 +11°C° 0 mm 4 mps 751 mmHg 79%
16:00 +10°C° 0 mm 3 mps 751 mmHg 84%
17:00 +10°C° 0.9 mm 3 mps 750 mmHg 88%
18:00 +10°C° 0.9 mm 3 mps 750 mmHg 92%
19:00 +10°C° 0.9 mm 4 mps 750 mmHg 95%
20:00 +10°C° 1 mm 4 mps 750 mmHg 95%
21:00 +11°C° 1 mm 4 mps 749 mmHg 96%
22:00 +11°C° 1 mm 4 mps 749 mmHg 96%
23:00 +11°C° 0.4 mm 4 mps 749 mmHg 95%

Day after tomorrow, 2 November, Monday

Time Temperature Precipitation Wind Pressure Humidity
00:00 +11°C° 0.4 mm 4 mps 748 mmHg 95%
01:00 +11°C° 0.4 mm 4 mps 748 mmHg 95%
02:00 +11°C° 0.3 mm 4 mps 748 mmHg 95%
03:00 +11°C° 0.3 mm 4 mps 748 mmHg 95%
04:00 +11°C° 0.3 mm 4 mps 748 mmHg 94%
05:00 +11°C° 0 mm 4 mps 748 mmHg 94%
06:00 +12°C° 0 mm 4 mps 749 mmHg 93%
07:00 +12°C° 0 mm 4 mps 749 mmHg 93%
08:00 +12°C° 0 mm 4 mps 749 mmHg 89%
09:00 +13°C° 0 mm 4 mps 750 mmHg 85%
10:00 +13°C° 0 mm 4 mps 750 mmHg 81%
11:00 +13°C° 0 mm 3 mps 750 mmHg 81%
12:00 +13°C° 0 mm 3 mps 750 mmHg 81%
13:00 +13°C° 0 mm 3 mps 750 mmHg 82%
14:00 +12°C° 0 mm 3 mps 750 mmHg 85%
15:00 +12°C° 0 mm 3 mps 750 mmHg 88%
16:00 +12°C° 0 mm 3 mps 750 mmHg 91%
17:00 +12°C° 0 mm 3 mps 750 mmHg 92%
18:00 +12°C° 0 mm 3 mps 750 mmHg 94%
19:00 +13°C° 0 mm 3 mps 751 mmHg 95%
20:00 +13°C° 0 mm 3 mps 751 mmHg 94%
21:00 +13°C° 0 mm 3 mps 751 mmHg 93%
22:00 +14°C° 0 mm 4 mps 751 mmHg 92%
23:00 +14°C° 0 mm 4 mps 751 mmHg 92%

3 November, Tuesday

Time Temperature Precipitation Wind Pressure Humidity
00:00 +13°C° 0 mm 4 mps 751 mmHg 92%
01:00 +13°C° 0 mm 3 mps 751 mmHg 92%
02:00 +13°C° 0 mm 3 mps 751 mmHg 92%
03:00 +13°C° 0 mm 4 mps 751 mmHg 92%
04:00 +13°C° 0 mm 4 mps 751 mmHg 92%
05:00 +13°C° 0 mm 3 mps 751 mmHg 92%
06:00 +13°C° 0 mm 3 mps 752 mmHg 92%
07:00 +13°C° 0 mm 3 mps 752 mmHg 92%
08:00 +14°C° 0.2 mm 4 mps 753 mmHg 86%
09:00 +14°C° 0.2 mm 4 mps 753 mmHg 79%
10:00 +14°C° 0.2 mm 5 mps 754 mmHg 72%
11:00 +14°C° 0 mm 5 mps 754 mmHg 69%
12:00 +13°C° 0 mm 5 mps 755 mmHg 65%
13:00 +13°C° 0 mm 5 mps 755 mmHg 62%
14:00 +12°C° 0 mm 5 mps 756 mmHg 64%
15:00 +12°C° 0 mm 4 mps 756 mmHg 66%
16:00 +11°C° 0 mm 3 mps 756 mmHg 69%
17:00 +10°C° 0 mm 3 mps 757 mmHg 72%
18:00 +9°C° 0 mm 3 mps 758 mmHg 75%
19:00 +9°C° 0 mm 3 mps 758 mmHg 78%
20:00 +8°C° 0 mm 3 mps 758 mmHg 79%
21:00 +8°C° 0 mm 3 mps 759 mmHg 80%
22:00 +8°C° 0 mm 3 mps 759 mmHg 81%
23:00 +8°C° 0 mm 3 mps 759 mmHg 80%

4 November, Wednesday

Time Temperature Precipitation Wind Pressure Humidity
00:00 +8°C° 0 mm 3 mps 759 mmHg 79%
01:00 +8°C° 0 mm 3 mps 760 mmHg 78%
02:00 +7°C° 0 mm 3 mps 760 mmHg 80%
03:00 +7°C° 0 mm 3 mps 760 mmHg 83%
04:00 +7°C° 0 mm 3 mps 760 mmHg 85%
05:00 +5°C° 0 mm 3 mps 760 mmHg 86%
06:00 +5°C° 0 mm 3 mps 760 mmHg 87%
07:00 +4°C° 0 mm 3 mps 761 mmHg 88%
08:00 +5°C° 0 mm 3 mps 761 mmHg 83%
09:00 +7°C° 0 mm 3 mps 761 mmHg 77%
10:00 +7°C° 0 mm 4 mps 761 mmHg 72%
11:00 +9°C° 0 mm 3 mps 761 mmHg 69%
12:00 +9°C° 0 mm 3 mps 761 mmHg 65%
13:00 +10°C° 0 mm 3 mps 761 mmHg 62%
14:00 +9°C° 0 mm 3 mps 761 mmHg 65%
15:00 +8°C° 0 mm 2 mps 761 mmHg 69%
16:00 +7°C° 0 mm 2 mps 761 mmHg 72%
17:00 +7°C° 0 mm 2 mps 762 mmHg 74%
18:00 +8°C° 0 mm 1 mps 762 mmHg 76%
19:00 +7°C° 0 mm 1 mps 762 mmHg 79%
20:00 +7°C° 0 mm 1 mps 762 mmHg 80%
21:00 +7°C° 0 mm 1 mps 762 mmHg 81%
22:00 +6°C° 0 mm 1 mps 763 mmHg 82%
23:00 +6°C° 0 mm 1 mps 763 mmHg 82%

5 November, Thursday

Time Temperature Precipitation Wind Pressure Humidity
00:00 +6°C° 0 mm 1 mps 763 mmHg 83%
01:00 +6°C° 0 mm 1 mps 763 mmHg 84%
02:00 +6°C° 0 mm 1 mps 763 mmHg 85%
03:00 +5°C° 0 mm 1 mps 763 mmHg 86%
04:00 +5°C° 0 mm 1 mps 763 mmHg 86%
05:00 +5°C° 0 mm 1 mps 763 mmHg 87%
06:00 +5°C° 0 mm 1 mps 763 mmHg 88%
07:00 +5°C° 0 mm 1 mps 764 mmHg 89%
08:00 +6°C° 0 mm 1 mps 764 mmHg 86%
09:00 +6°C° 0 mm 2 mps 764 mmHg 83%
10:00 +6°C° 0 mm 2 mps 764 mmHg 80%
11:00 +7°C° 0 mm 2 mps 764 mmHg 76%
12:00 +8°C° 0 mm 2 mps 764 mmHg 72%
13:00 +9°C° 0 mm 2 mps 764 mmHg 68%
14:00 +8°C° 0 mm 2 mps 764 mmHg 71%
15:00 +7°C° 0 mm 2 mps 764 mmHg 75%
16:00 +6°C° 0 mm 2 mps 764 mmHg 78%
17:00 +6°C° 0 mm 2 mps 765 mmHg 80%
18:00 +5°C° 0 mm 2 mps 765 mmHg 83%
19:00 +5°C° 0 mm 2 mps 765 mmHg 85%
20:00 +4°C° 0 mm 2 mps 765 mmHg 86%
21:00 +4°C° 0 mm 2 mps 766 mmHg 88%
22:00 +4°C° 0 mm 2 mps 766 mmHg 89%
23:00 +4°C° 0 mm 2 mps 766 mmHg 90%
Show more